[[{"header":{"parameterUnit":"m.s-1","parameterCategory":1,"la1":30.2992,"la2":30.254,"lo1":-89.0895,"lo2":-89.0443,"dy":0.0025,"dx":0.0025,"nx":19,"ny":19,"refTime":"2026-05-22T03:00:00:Z","depth":0,"parameterNumber":2,"parameterNumberName":"U-component_of_WINDS"},"data":[0,0,0,-0.6606,-0.661,-0.6834,-0.6835,-0.7087,-0.7089,0,0,0,0,0,0,0,0,0,0,0,-0.6515,-0.6516,-0.6605,-0.661,-0.6834,-0.6835,-0.7087,-0.7089,0,0,0,0,0,0,0,0,0,0,0,-0.6515,-0.6516,-0.6517,-0.6611,-0.6833,-0.6835,-0.7087,-0.6931,0,0,0,0,0,0,0,0,0,0,-0.6719,-0.6612,-0.6516,-0.6517,-0.6612,-0.6833,-0.6835,-0.6924,-0.694,-0.6971,0,-0.6988,0,-0.7042,-0.7104,-0.7105,0,0,0,-0.6629,-0.6597,-0.6679,-0.6517,-0.6614,-0.6833,-0.6738,-0.6933,-0.6952,-0.6992,-0.6992,-0.7002,-0.7046,-0.7105,-0.7106,-0.7211,-0.7211,0,0,-0.6617,-0.6543,-0.6666,-0.669,-0.665,-0.6731,-0.6745,-0.6945,-0.6941,-0.6993,-0.7009,-0.705,-0.7107,-0.7108,-0.7212,-0.7211,0,0,0,-0.6569,-0.6534,-0.6612,-0.6679,-0.6721,-0.6737,-0.6753,-0.6932,-0.6964,-0.7012,-0.7053,-0.7108,-0.711,-0.7212,-0.7211,-0.7119,0,0,0,-0.6562,-0.6506,-0.6605,-0.6563,-0.6717,-0.6829,-0.6734,-0.695,-0.6975,-0.7052,-0.7108,-0.7113,-0.7213,-0.7212,-0.7123,-0.7088,0,0,0,-0.6509,-0.65,-0.6524,-0.6558,-0.6651,-0.6827,-0.6871,-0.6957,-0.6999,-0.7105,-0.7113,-0.7213,-0.7212,-0.7126,-0.7094,-0.7094,0,0,0,-0.6432,-0.6439,-0.6521,-0.6546,-0.6649,-0.6768,-0.687,-0.6963,-0.7043,-0.7109,-0.7213,-0.7212,-0.7127,-0.7097,-0.7097,-0.7081,-0.7067,0,0,-0.6401,-0.6433,-0.6454,-0.6534,-0.6618,-0.674,-0.6814,-0.6957,-0.7036,-0.7149,-0.7153,-0.7122,-0.7094,-0.7095,-0.7017,-0.7005,0,0,0,-0.6419,-0.6433,-0.6472,-0.6543,-0.6651,-0.6743,-0.6883,-0.6937,-0.7037,-0.7078,-0.7125,-0.7111,-0.7115,-0.711,-0.71,-0.7109,-0.7206,-0.7207,-0.7207,-0.6269,-0.6368,-0.641,-0.6536,-0.6604,-0.6749,-0.6815,-0.6913,-0.6995,-0.7004,-0.7038,-0.6978,-0.697,-0.6963,-0.697,-0.7038,-0.7038,-0.7038,-0.7037,-0.6232,-0.6267,-0.6375,-0.6454,-0.656,-0.663,-0.6772,-0.6827,-0.6909,-0.696,-0.6969,-0.7015,-0.6947,-0.6959,-0.7032,-0.7033,-0.7033,-0.7034,-0.7034,-0.6143,-0.6178,-0.6242,-0.6356,-0.6434,-0.6565,-0.6638,-0.6734,-0.6825,-0.6833,-0.688,-0.6881,-0.6895,-0.6849,-0.6848,-0.6848,-0.6848,-0.6848,-0.6848,-0.6025,-0.6101,-0.6149,-0.6266,-0.6326,-0.6417,-0.6565,-0.6628,-0.6722,-0.6786,-0.6787,-0.6867,-0.6922,-0.6933,-0.6845,-0.6845,-0.6846,-0.6846,-0.6846,-0.5949,-0.5982,-0.6055,-0.6115,-0.6262,-0.6334,-0.6456,-0.6576,-0.6642,-0.6676,-0.6757,-0.6781,-0.6822,-0.683,-0.684,-0.6734,-0.6734,-0.6734,-0.6734,-0.5874,-0.5904,-0.6002,-0.609,-0.6189,-0.6307,-0.6392,-0.6509,-0.6636,-0.6684,-0.6714,-0.6736,-0.674,-0.6779,-0.6788,-0.6799,-0.6685,-0.6685,-0.6685,-0.5833,-0.5877,-0.5928,-0.6049,-0.6173,-0.6277,-0.6361,-0.6462,-0.6614,-0.6685,-0.6724,-0.6726,-0.6763,-0.6769,-0.6838,-0.6851,-0.6873,0,0]},{"header":{"parameterUnit":"m.s-1","parameterCategory":1,"la1":30.2992,"la2":30.254,"lo1":-89.0895,"lo2":-89.0443,"dy":0.0025,"dx":0.0025,"nx":19,"ny":19,"refTime":"2026-05-22T03:00:00:Z","depth":0,"parameterNumber":3,"parameterNumberName":"V-component_of_WINDS"},"data":[0,0,0,4.2273,4.2279,4.2623,4.2624,4.3027,4.303,0,0,0,0,0,0,0,0,0,0,0,4.215,4.2152,4.2272,4.228,4.2622,4.2624,4.3026,4.303,0,0,0,0,0,0,0,0,0,0,0,4.2149,4.2152,4.2154,4.2281,4.2622,4.2624,4.3025,4.2779,0,0,0,0,0,0,0,0,0,0,4.2452,4.232,4.2151,4.2154,4.2283,4.2622,4.2624,4.2768,4.2795,4.2856,0,4.2906,0,4.2974,4.3055,4.3056,0,0,0,4.2296,4.2297,4.2408,4.2155,4.2286,4.2621,4.2472,4.2783,4.2813,4.2891,4.2912,4.2928,4.2981,4.3057,4.3059,4.3362,4.3363,0,0,4.2277,4.2201,4.2387,4.2427,4.2372,4.2461,4.2483,4.2802,4.282,4.2914,4.2938,4.2987,4.306,4.3062,4.3362,4.3362,0,0,0,4.2212,4.2187,4.2291,4.2409,4.2473,4.2471,4.2496,4.2806,4.2846,4.2943,4.2992,4.3062,4.3066,4.3361,4.3362,4.3321,0,0,0,4.2201,4.2149,4.2282,4.2239,4.2467,4.2644,4.2491,4.2824,4.2862,4.299,4.3062,4.307,4.336,4.3361,4.3321,4.3314,0,0,0,4.2135,4.2142,4.2184,4.2234,4.2379,4.2641,4.27,4.2834,4.2892,4.3056,4.3071,4.336,4.3361,4.332,4.3314,4.337,0,0,0,4.2043,4.2145,4.2182,4.2315,4.2375,4.2613,4.2699,4.288,4.3016,4.3064,4.336,4.3362,4.332,4.3314,4.3369,4.3403,4.341,0,0,4.2129,4.2152,4.2236,4.228,4.2491,4.2567,4.2773,4.297,4.3055,4.3255,4.3263,4.3321,4.3314,4.337,4.3479,4.3484,0,0,0,4.2238,4.2297,4.2369,4.2495,4.2648,4.2777,4.2951,4.3023,4.3196,4.3142,4.336,4.3358,4.3394,4.3413,4.3418,4.3453,4.3368,4.3368,4.3368,4.2251,4.2354,4.2499,4.2641,4.2762,4.2939,4.3046,4.3174,4.3243,4.3292,4.3352,4.3406,4.3426,4.343,4.3464,4.3379,4.3379,4.3379,4.3379,4.2386,4.2485,4.2572,4.2744,4.2851,4.2997,4.317,4.3213,4.3364,4.337,4.3407,4.3403,4.3432,4.3468,4.3377,4.3377,4.3378,4.3378,4.3378,4.2405,4.247,4.2556,4.2746,4.2881,4.3023,4.3162,4.3255,4.3344,4.3381,4.3452,4.3453,4.3464,4.3408,4.3409,4.3409,4.3409,4.3409,4.3409,4.239,4.2488,4.2594,4.2762,4.2853,4.2986,4.3162,4.3255,4.3381,4.3438,4.3439,4.3501,4.3416,4.3391,4.3413,4.3412,4.3411,4.3411,4.3411,4.2486,4.2479,4.2642,4.2733,4.2937,4.3063,4.318,4.3359,4.345,4.3515,4.357,4.3492,4.3522,4.352,4.35,4.3548,4.3548,4.3548,4.3548,4.2501,4.2525,4.2712,4.2851,4.2999,4.312,4.3299,4.3436,4.3577,4.3638,4.3645,4.3627,4.362,4.3655,4.365,4.3633,4.3714,4.3714,4.3714,4.2565,4.2607,4.2742,4.2879,4.3044,4.3183,4.3354,4.351,4.3668,4.3723,4.3688,4.3681,4.3654,4.364,4.3692,4.3681,4.3652,0,0]}]]